N2KI-13 Weather Reports


Display with metric or nautical units.
time (UTC)temp
F
wind
direction
speed
MPH
gust
MPH
rain 1hr
in
rain 24hr
in
rain mn
in
humidity
%
barometer
mb
20190420083952 67 269 3.0 12.0 0.00 0.13 0.07 90 1005.7
20190420083452 67 236 2.0 7.0 0.00 0.13 0.07 90 1005.7
20190420082952 67 156 2.0 6.0 0.01 0.13 0.07 90 1005.5
20190420082452 67 115 0.0 2.0 0.01 0.13 0.07 90 1005.5
20190420081952 67 225 2.0 9.0 0.01 0.13 0.07 90 1005.4
20190420081453 67 228 3.0 10.0 0.01 0.13 0.07 90 1005.5
20190420080952 67 159 1.0 9.0 0.01 0.13 0.07 91 1005.4
20190420080452 67 213 1.0 9.0 0.01 0.13 0.07 91 1005.5
20190420075952 67 165 1.0 7.0 0.01 0.13 0.07 91 1005.5
20190420075451 67 217 3.0 8.0 0.02 0.13 0.07 91 1005.3
20190420074952 67 239 2.0 10.0 0.02 0.13 0.07 90 1005.3
20190420074452 67 218 4.0 14.0 0.02 0.13 0.07 90 1005.4
20190420073952 68 182 1.0 5.0 0.02 0.13 0.07 90 1005.4
20190420073452 68 211 2.0 8.0 0.02 0.13 0.07 89 1005.6
20190420072953 68 187 1.0 6.0 0.02 0.12 0.06 89 1005.6
20190420072452 68 199 3.0 14.0 0.02 0.12 0.06 90 1005.5
20190420071952 68 187 3.0 12.0 0.02 0.12 0.06 90 1005.4
20190420071452 68 201 3.0 9.0 0.02 0.12 0.06 90 1005.4
20190420070952 68 193 0.0 14.0 0.03 0.12 0.06 90 1005.3
20190420070452 68 192 2.0 10.0 0.03 0.12 0.06 90 1005.3
20190420065952 68 226 4.0 14.0 0.03 0.12 0.06 90 1005.3
20190420065452 68 197 1.0 10.0 0.02 0.11 0.05 90 1005.4
20190420064951 68 202 2.0 9.0 0.03 0.11 0.05 90 1005.3
20190420064453 68 192 2.0 13.0 0.03 0.11 0.05 90 1005.4
20190420063952 68 198 5.0 14.0 0.03 0.11 0.05 90 1005.4
20190420063452 68 189 3.0 9.0 0.03 0.11 0.05 90 1005.3
20190420062952 68 201 1.0 15.0 0.02 0.10 0.04 90 1005.6
20190420062451 68 204 3.0 8.0 0.02 0.10 0.04 90 1005.4
20190420061951 68 154 5.0 12.0 0.02 0.10 0.04 90 1005.3
20190420061452 69 176 3.0 15.0 0.02 0.10 0.04 90 1005.4
20190420060952 69 168 6.0 17.0 0.01 0.09 0.03 90 1005.4
20190420060452 69 214 1.0 9.0 0.01 0.09 0.03 90 1005.4
20190420055952 69 163 3.0 9.0 0.01 0.09 0.03 90 1005.4
20190420055452 69 202 2.0 9.0 0.01 0.09 0.03 90 1005.3
20190420054952 69 186 1.0 17.0 0.00 0.08 0.02 89 1005.3
20190420054452 69 179 2.0 9.0 0.00 0.08 0.02 89 1005.3
20190420053952 69 177 5.0 12.0 0.00 0.08 0.02 89 1005.1
20190420053452 69 194 3.0 9.0 0.01 0.08 0.02 89 1005.0
20190420052952 69 225 5.0 18.0 0.01 0.08 0.02 89 1004.8
20190420052452 69 230 1.0 18.0 0.01 0.08 0.02 89 1005.0
20190420051952 69 180 3.0 13.0 0.01 0.08 0.02 89 1005.0
20190420051452 69 285 6.0 12.0 0.01 0.08 0.02 90 1005.1
20190420050953 69 169 6.0 17.0 0.02 0.08 0.02 90 1005.1
20190420050452 69 209 4.0 12.0 0.02 0.08 0.02 90 1004.9
20190420045952 69 197 6.0 16.0 0.02 0.08 0.02 90 1005.2
20190420045452 69 209 2.0 7.0 0.02 0.08 0.02 90 1005.3
20190420044952 69 156 1.0 10.0 0.02 0.08 0.02 90 1005.5
20190420044453 69 128 7.0 16.0 0.02 0.08 0.02 90 1005.4
20190420043952 68 187 4.0 14.0 0.02 0.08 0.02 90 1005.4
20190420043451 68 185 2.0 10.0 0.01 0.07 0.01 90 1005.4
20190420042952 69 178 6.0 18.0 0.01 0.07 0.01 90 1005.3
20190420042452 69 186 3.0 17.0 0.02 0.07 0.01 90 1005.3
20190420041952 69 130 6.0 12.0 0.02 0.07 0.01 90 1005.3
20190420041452 69 149 5.0 16.0 0.02 0.07 0.01 90 1005.4
20190420040952 69 162 6.0 16.0 0.01 0.06 0.00 90 1005.5
20190420040452 69 117 4.0 18.0 0.01 0.06 0.00 90 1005.5
20190420035952 69 182 2.0 18.0 0.01 0.06 0.00 90 1005.5
20190420035451 69 146 3.0 14.0 0.01 0.06 0.06 90 1005.6
20190420034952 69 146 2.0 10.0 0.01 0.06 0.06 91 1005.7
20190420034452 69 107 3.0 9.0 0.01 0.06 0.06 91 1005.8
20190420033952 69 202 5.0 12.0 0.01 0.06 0.06 91 1005.8
20190420033452 68 230 6.0 13.0 0.01 0.06 0.06 91 1005.9
20190420032952 68 180 4.0 12.0 0.01 0.06 0.06 91 1005.9
20190420032452 68 170 5.0 10.0 0.00 0.05 0.05 91 1005.9
20190420031952 68 153 2.0 14.0 0.00 0.05 0.05 90 1005.9
20190420031452 68 172 1.0 21.0 0.01 0.05 0.05 90 1005.8
20190420030952 68 215 3.0 8.0 0.01 0.05 0.05 90 1005.9
20190420030452 68 201 6.0 12.0 0.01 0.05 0.05 91 1005.7
20190420025953 68 162 5.0 13.0 0.01 0.05 0.05 90 1005.6
20190420025452 68 142 3.0 9.0 0.01 0.05 0.05 90 1005.7
20190420024952 68 175 2.0 9.0 0.01 0.05 0.05 90 1005.8
20190420024452 68 159 2.0 7.0 0.01 0.05 0.05 90 1005.8
20190420023953 68 157 1.0 9.0 0.02 0.05 0.05 90 1006.0
20190420023452 68 155 5.0 14.0 0.03 0.05 0.05 90 1005.7
20190420022953 68 177 3.0 12.0 0.04 0.05 0.05 89 1005.8
20190420022452 68 182 5.0 14.0 0.05 0.05 0.05 89 1005.7
20190420021952 68 167 6.0 12.0 0.05 0.05 0.05 89 1005.9
20190420021452 68 162 3.0 12.0 0.04 0.04 0.04 89 1006.0
20190420020952 68 164 4.0 14.0 0.04 0.04 0.04 89 1006.1
20190420020452 68 149 3.0 7.0 0.04 0.04 0.04 88 1006.1
20190420015952 68 134 1.0 7.0 0.04 0.04 0.04 88 1006.1
20190420015452 68 194 4.0 12.0 0.04 0.04 0.04 87 1006.1
20190420014952 69 167 5.0 12.0 0.04 0.04 0.04 87 1006.1
20190420014452 69 142 6.0 15.0 0.04 0.04 0.04 86 1006.0
20190420013952 69 181 6.0 20.0 0.03 0.03 0.03 84 1006.3
20190420013452 70 185 6.0 15.0 0.02 0.02 0.02 83 1006.6
20190420012952 70 185 6.0 13.0 0.01 0.01 0.01 81 1006.4
20190420012452 70 167 6.0 14.0 0.00 0.00 0.00 81 1006.3
20190420011952 70 157 4.0 13.0 0.00 0.00 0.00 81 1006.3
20190420011452 70 172 5.0 18.0 0.00 0.00 0.00 81 1006.2
20190420010952 71 185 3.0 9.0 0.00 0.00 0.00 81 1006.2
20190420010452 71 144 5.0 10.0 0.00 0.00 0.00 80 1006.4
20190420005953 71 121 6.0 13.0 0.00 0.00 0.00 80 1006.3
20190420005452 71 132 4.0 9.0 0.00 0.00 0.00 79 1006.3
20190420004952 71 120 3.0 14.0 0.00 0.00 0.00 79 1006.5
20190420004453 71 167 5.0 10.0 0.00 0.00 0.00 79 1006.5
20190420003952 71 154 7.0 13.0 0.00 0.00 0.00 79 1006.4
20190420003452 71 153 7.0 15.0 0.00 0.00 0.00 79 1006.3
20190420002953 71 187 5.0 12.0 0.00 0.00 0.00 78 1006.3
20190420002453 71 163 6.0 16.0 0.00 0.00 0.00 78 1006.4
20190420001953 71 155 2.0 9.0 0.00 0.00 0.00 78 1006.5
20190420001453 72 152 5.0 12.0 0.00 0.00 0.00 77 1006.5
20190420000952 72 155 2.0 17.0 0.00 0.00 0.00 77 1006.3
20190420000453 72 188 4.0 12.0 0.00 0.00 0.00 77 1006.3
20190419235952 72 167 6.0 18.0 0.00 0.00 0.00 76 1006.1
20190419235453 72 192 6.0 18.0 0.00 0.00 0.00 76 1006.2
20190419234952 72 161 5.0 15.0 0.00 0.00 0.00 76 1005.9
20190419234452 72 150 4.0 13.0 0.00 0.00 0.00 76 1006.2
20190419233952 72 141 3.0 10.0 0.00 0.00 0.00 75 1006.1
20190419233454 72 177 3.0 10.0 0.00 0.00 0.00 75 1006.0
20190419232953 73 181 5.0 16.0 0.00 0.00 0.00 74 1006.2
20190419232452 73 195 3.0 12.0 0.00 0.00 0.00 74 1006.1
20190419231952 73 182 5.0 12.0 0.00 0.00 0.00 73 1006.1
20190419231452 73 284 3.0 9.0 0.00 0.00 0.00 73 1006.0
20190419230952 73 137 3.0 15.0 0.00 0.00 0.00 72 1006.0
20190419230452 74 147 4.0 15.0 0.00 0.00 0.00 72 1006.1
20190419225953 74 177 5.0 10.0 0.00 0.00 0.00 72 1006.2
20190419225452 74 172 3.0 9.0 0.00 0.00 0.00 71 1006.2
20190419224953 74 177 2.0 7.0 0.00 0.00 0.00 71 1006.0
20190419224453 74 135 3.0 12.0 0.00 0.00 0.00 70 1006.0
20190419223952 75 169 3.0 10.0 0.00 0.00 0.00 69 1006.2
20190419223452 75 222 3.0 10.0 0.00 0.00 0.00 69 1006.2
20190419222953 75 173 6.0 14.0 0.00 0.00 0.00 68 1006.3
20190419222452 75 207 1.0 10.0 0.00 0.00 0.00 68 1006.2
20190419221952 75 173 2.0 12.0 0.00 0.00 0.00 67 1006.2
20190419221452 76 138 3.0 12.0 0.00 0.00 0.00 66 1006.1
20190419220952 76 146 1.0 9.0 0.00 0.00 0.00 65 1006.1
20190419220451 76 156 5.0 12.0 0.00 0.00 0.00 64 1006.2
20190419215953 76 193 0.0 3.0 0.00 0.00 0.00 63 1006.3
20190419215453 76 178 0.0 7.0 0.00 0.00 0.00 63 1006.4
20190419214952 76 223 2.0 12.0 0.00 0.00 0.00 63 1006.3
20190419214452 76 212 0.0 3.0 0.00 0.00 0.00 63 1006.4
20190419213953 76 182 3.0 8.0 0.00 0.00 0.00 64 1006.2
20190419213452 76 149 1.0 7.0 0.00 0.00 0.00 64 1006.1
20190419212953 76 177 0.0 2.0 0.00 0.00 0.00 64 1006.1
20190419212452 76 232 0.0 1.0 0.00 0.00 0.00 64 1006.2
20190419211951 76 227 3.0 8.0 0.00 0.00 0.00 64 1006.4
20190419211454 76 238 1.0 9.0 0.00 0.00 0.00 64 1006.3
20190419210952 76 205 1.0 6.0 0.00 0.00 0.00 64 1006.3
20190419210453 76 242 1.0 3.0 0.00 0.00 0.00 64 1006.3
20190419205952 76 170 2.0 10.0 0.00 0.00 0.00 63 1006.2
20190419205452 76 218 3.0 10.0 0.00 0.00 0.00 63 1006.3
20190419204952 76 163 2.0 8.0 0.00 0.00 0.00 63 1006.4
20190419204452 76 195 2.0 8.0 0.00 0.00 0.00 63 1006.4
20190419203953 76 236 5.0 14.0 0.00 0.00 0.00 62 1006.4
20190419203453 77 258 3.0 9.0 0.00 0.00 0.00 62 1006.6
20190419202953 77 166 7.0 14.0 0.00 0.00 0.00 62 1006.7
20190419202452 77 190 5.0 17.0 0.00 0.00 0.00 63 1006.7
20190419201953 76 187 2.0 9.0 0.00 0.00 0.00 62 1006.6
20190419201452 77 185 5.0 15.0 0.00 0.00 0.00 62 1006.5
20190419200953 77 214 5.0 14.0 0.00 0.00 0.00 61 1006.4
20190419200452 77 262 2.0 12.0 0.00 0.00 0.00 61 1006.3
20190419195953 77 204 1.0 7.0 0.00 0.00 0.00 60 1006.3
20190419195453 77 217 1.0 7.0 0.00 0.00 0.00 59 1006.2
20190419194952 78 155 4.0 9.0 0.00 0.00 0.00 58 1006.2
20190419194453 78 302 1.0 12.0 0.00 0.00 0.00 58 1006.3
20190419193952 78 219 2.0 13.0 0.00 0.00 0.00 59 1006.3
20190419193453 78 216 4.0 12.0 0.00 0.00 0.00 59 1006.4
20190419192952 77 260 2.0 7.0 0.00 0.00 0.00 60 1006.5
20190419192452 77 232 1.0 7.0 0.00 0.00 0.00 60 1006.4
20190419191952 77 261 5.0 13.0 0.00 0.00 0.00 61 1006.6
20190419191453 77 253 4.0 15.0 0.00 0.00 0.00 60 1006.8
20190419190952 78 259 5.0 12.0 0.00 0.00 0.00 56 1007.0
20190419190452 78 219 5.0 12.0 0.00 0.00 0.00 56 1006.8
20190419185953 78 251 6.0 17.0 0.00 0.00 0.00 56 1007.0
20190419185452 78 238 7.0 21.0 0.00 0.00 0.00 56 1007.1
20190419184952 78 228 7.0 14.0 0.00 0.00 0.00 55 1007.2
20190419184452 78 234 3.0 10.0 0.00 0.00 0.00 56 1007.3
20190419183952 78 222 6.0 17.0 0.00 0.00 0.00 55 1007.4
20190419183452 78 264 8.0 17.0 0.00 0.00 0.00 56 1007.3
20190419182953 78 261 6.0 17.0 0.00 0.00 0.00 55 1007.3
20190419182452 78 256 4.0 22.0 0.00 0.00 0.00 55 1007.3
20190419181953 79 235 6.0 16.0 0.00 0.00 0.00 55 1007.4
20190419181453 78 248 3.0 20.0 0.00 0.00 0.00 57 1007.3
20190419180953 78 257 1.0 14.0 0.00 0.00 0.00 57 1007.2
20190419180452 77 188 5.0 14.0 0.00 0.00 0.00 58 1007.3
20190419175953 77 226 1.0 14.0 0.00 0.00 0.00 60 1007.3
20190419175453 77 239 7.0 16.0 0.00 0.00 0.00 58 1007.4
20190419174952 77 204 4.0 13.0 0.00 0.00 0.00 59 1007.4
20190419174452 76 234 2.0 6.0 0.00 0.00 0.00 61 1007.5
20190419173953 76 216 2.0 12.0 0.00 0.00 0.00 61 1007.6
20190419173452 76 144 5.0 14.0 0.00 0.00 0.00 61 1007.6
20190419172953 75 206 3.0 10.0 0.00 0.00 0.00 61 1007.7
20190419172452 75 243 5.0 12.0 0.00 0.00 0.00 62 1007.8
20190419171952 75 253 2.0 12.0 0.00 0.00 0.00 63 1007.9
20190419171453 74 247 3.0 12.0 0.00 0.00 0.00 63 1007.9
20190419170952 75 189 2.0 16.0 0.00 0.00 0.00 63 1007.8
20190419170453 75 223 4.0 14.0 0.00 0.00 0.00 64 1007.9
20190419165952 75 227 3.0 9.0 0.00 0.00 0.00 63 1007.9
20190419165452 75 230 3.0 12.0 0.00 0.00 0.00 62 1007.8
20190419164952 76 210 2.0 10.0 0.00 0.00 0.00 62 1007.8
20190419164453 76 249 3.0 15.0 0.00 0.00 0.00 62 1007.8
20190419163953 75 251 6.0 15.0 0.00 0.00 0.00 62 1007.7
20190419163453 75 211 2.0 16.0 0.00 0.00 0.00 62 1007.9
20190419162952 75 221 6.0 12.0 0.00 0.00 0.00 61 1007.9
20190419162452 75 198 3.0 12.0 0.00 0.00 0.00 63 1008.0
20190419161952 75 258 3.0 12.0 0.00 0.00 0.00 63 1008.1
20190419161452 75 238 6.0 14.0 0.00 0.00 0.00 62 1008.1
20190419160953 75 228 7.0 20.0 0.00 0.00 0.00 62 1008.1
20190419160452 75 229 5.0 13.0 0.00 0.00 0.00 63 1008.3
20190419155953 75 250 3.0 12.0 0.00 0.00 0.00 64 1008.4
20190419155453 74 220 6.0 12.0 0.00 0.00 0.00 65 1008.3
20190419154952 74 285 2.0 12.0 0.00 0.00 0.00 66 1008.4
20190419154452 74 200 5.0 20.0 0.00 0.00 0.00 66 1008.6
20190419153952 73 229 5.0 16.0 0.00 0.00 0.00 68 1008.6
20190419153453 73 245 5.0 16.0 0.00 0.00 0.00 69 1008.6
20190419152953 72 194 2.0 17.0 0.00 0.00 0.00 71 1008.7
20190419152453 72 197 4.0 16.0 0.00 0.00 0.00 73 1008.6
20190419151953 71 235 4.0 10.0 0.00 0.00 0.00 74 1008.8
20190419151453 70 193 3.0 12.0 0.00 0.00 0.00 74 1009.0
20190419150953 70 258 5.0 14.0 0.00 0.00 0.00 74 1009.1
20190419150452 70 228 2.0 12.0 0.00 0.00 0.00 74 1009.3
20190419145953 70 263 0.0 12.0 0.00 0.00 0.00 75 1009.3
20190419145453 70 206 2.0 7.0 0.00 0.00 0.00 76 1009.3
20190419144953 70 232 2.0 12.0 0.00 0.00 0.00 76 1009.3
20190419144453 69 272 5.0 12.0 0.00 0.00 0.00 77 1009.3
20190419143952 69 217 2.0 7.0 0.00 0.00 0.00 78 1009.3
20190419143452 68 256 2.0 7.0 0.00 0.00 0.00 78 1009.5
20190419142953 68 256 3.0 9.0 0.00 0.00 0.00 78 1009.5
20190419142452 68 203 6.0 12.0 0.00 0.00 0.00 77 1009.5
20190419141953 69 242 5.0 13.0 0.00 0.00 0.00 77 1009.4
20190419141453 69 240 3.0 8.0 0.00 0.00 0.00 77 1009.4
20190419140952 69 238 3.0 10.0 0.00 0.00 0.00 77 1009.4
20190419140453 69 197 5.0 10.0 0.00 0.00 0.00 79 1009.4
20190419135953 68 225 6.0 12.0 0.00 0.00 0.00 78 1009.3
20190419135453 68 214 2.0 8.0 0.00 0.00 0.00 79 1009.3
20190419134953 68 189 2.0 7.0 0.00 0.00 0.00 79 1009.2
20190419134452 67 249 2.0 10.0 0.00 0.00 0.00 80 1009.4
20190419133953 67 247 1.0 6.0 0.00 0.00 0.00 80 1009.3
20190419133453 67 234 2.0 9.0 0.00 0.00 0.00 80 1009.3
20190419132953 67 211 4.0 14.0 0.00 0.00 0.00 80 1009.3
20190419132452 67 250 5.0 12.0 0.00 0.00 0.00 81 1009.1
20190419131953 67 195 3.0 16.0 0.00 0.00 0.00 81 1009.0
20190419131453 66 215 0.0 14.0 0.00 0.00 0.00 82 1008.8
20190419130953 66 249 2.0 8.0 0.00 0.00 0.00 83 1008.9
20190419130456 66 230 3.0 10.0 0.00 0.00 0.00 83 1009.0
20190419125952 65 217 5.0 12.0 0.00 0.00 0.00 84 1008.9
20190419125453 65 219 4.0 12.0 0.00 0.00 0.00 84 1008.9
20190419124953 65 195 3.0 14.0 0.00 0.00 0.00 85 1008.8
20190419124453 64 205 2.0 14.0 0.00 0.00 0.00 85 1008.8
20190419123953 64 222 3.0 8.0 0.00 0.00 0.00 85 1008.7
20190419123453 64 206 1.0 7.0 0.00 0.00 0.00 85 1008.7
20190419122953 64 195 5.0 10.0 0.00 0.00 0.00 85 1008.8
20190419122453 64 213 1.0 6.0 0.00 0.00 0.00 85 1008.9
20190419121952 64 221 2.0 6.0 0.00 0.00 0.00 85 1009.0
20190419121452 64 214 1.0 7.0 0.00 0.00 0.00 85 1009.0
20190419120952 64 263 1.0 6.0 0.00 0.00 0.00 85 1008.9
20190419120452 64 186 2.0 6.0 0.00 0.00 0.00 85 1008.8
20190419115953 64 224 2.0 6.0 0.00 0.00 0.00 85 1008.8
20190419115453 64 232 1.0 3.0 0.00 0.00 0.00 85 1008.7
20190419114953 64 230 1.0 5.0 0.00 0.00 0.00 85 1008.7
20190419114453 64 169 1.0 3.0 0.00 0.00 0.00 85 1008.8
20190419113953 64 177 1.0 7.0 0.00 0.00 0.00 86 1008.8
20190419113453 63 222 1.0 5.0 0.00 0.00 0.00 86 1008.9
20190419112953 63 277 0.0 6.0 0.00 0.00 0.00 86 1009.1
20190419112453 63 257 2.0 7.0 0.00 0.00 0.00 86 1009.2
20190419111953 63 258 0.0 5.0 0.00 0.00 0.00 86 1009.2
20190419111453 63 253 2.0 7.0 0.00 0.00 0.00 86 1009.3
20190419110952 63 205 1.0 3.0 0.00 0.00 0.00 86 1009.2
20190419110452 63 221 3.0 8.0 0.00 0.00 0.00 86 1009.2
20190419105953 63 227 2.0 8.0 0.00 0.00 0.00 86 1009.2
20190419105453 63 244 3.0 7.0 0.00 0.00 0.00 87 1009.3
20190419104953 63 161 1.0 6.0 0.00 0.00 0.00 87 1009.3
20190419104452 63 246 3.0 8.0 0.00 0.00 0.00 86 1009.2
20190419103953 63 205 2.0 6.0 0.00 0.00 0.00 87 1009.4
20190419103453 63 230 2.0 7.0 0.00 0.00 0.00 87 1009.3
20190419102953 63 268 2.0 10.0 0.00 0.00 0.00 87 1009.2
20190419102453 63 234 3.0 8.0 0.00 0.00 0.00 87 1009.3
20190419101953 62 220 2.0 7.0 0.00 0.00 0.00 87 1009.2
20190419101453 63 268 0.0 10.0 0.00 0.00 0.00 87 1009.2
20190419100953 62 244 2.0 8.0 0.00 0.00 0.00 87 1009.0
20190419100453 62 220 2.0 12.0 0.00 0.00 0.00 87 1008.9
20190419095954 62 251 1.0 6.0 0.00 0.00 0.00 87 1008.8
20190419095453 62 257 3.0 7.0 0.00 0.00 0.00 87 1008.7
20190419094954 62 276 2.0 9.0 0.00 0.00 0.00 87 1008.9
20190419094453 62 209 3.0 7.0 0.00 0.00 0.00 87 1008.8
20190419093954 62 251 2.0 7.0 0.00 0.00 0.00 88 1008.8
20190419093454 62 246 1.0 3.0 0.00 0.00 0.00 88 1008.8
20190419092953 62 244 1.0 5.0 0.00 0.00 0.00 87 1008.7
20190419092453 62 147 1.0 7.0 0.00 0.00 0.00 88 1008.8
20190419091954 62 247 1.0 10.0 0.00 0.00 0.00 88 1008.9
20190419091458 62 260 1.0 9.0 0.00 0.00 0.00 88 1008.9
20190419090953 62 245 2.0 8.0 0.00 0.00 0.00 88 1009.1
20190419090453 62 217 0.0 3.0 0.00 0.00 0.00 88 1009.1
20190419085954 62 242 1.0 3.0 0.00 0.00 0.00 88 1009.2
20190419085454 62 257 1.0 5.0 0.00 0.01 0.00 88 1009.3
20190419084953 62 254 2.0 7.0 0.00 0.01 0.00 88 1009.3
20190419084454 62 259 0.0 7.0 0.00 0.01 0.00 87 1009.3